Weather History for KDIK - June, 2012

Change the Weather History Date:

Wednesday, June 27, 2012

  Actual Average Record
Temperature  
Mean Temperature 67 °F 66 °F  
Max Temperature 85 °F 79 °F 103 °F (1936)
Min Temperature 49 °F 52 °F 35 °F (1895)
Degree Days  
Heating Degree Days 0 2  
Month to date heating degree days 68 130  
Since 1 June heating degree days 68 130  
Since 1 July heating degree days 7129 8570  
Cooling Degree Days 2 3  
Month to date cooling degree days 59 45  
Year to date cooling degree days 72 55  
Since 1 June cooling degree days 59 45  
Growing Degree Days 20 (Base 50)    
Moisture  
Dew Point 40 °F    
Average Humidity 44    
Maximum Humidity 72    
Minimum Humidity 16    
Precipitation  
Precipitation 0.00 in 0.10 in 1.86 in (1944)
Month to date precipitation 2.35 2.89  
Year to date precipitation 6.12 8.00  
Sea Level Pressure  
Sea Level Pressure 29.79 in    
Wind  
Wind Speed 10 mph (NW)    
Max Wind Speed 25 mph    
Max Gust Speed 33 mph    
Visibility 10 miles    
Events      
T = Trace of Precipitation, MM = Missing Value Source: NWS Daily Summary

Daily Weather History Graph

Daily Weather History Graph

Search for Another Location

Airport or City:

Trip Planner

Search our weather history database for the weather conditions in past years. The results will help you decide how hot, cold, wet, or windy it might be!

Date:

Astronomy

Jun. 27, 2012 Rise Set
Actual Time 4:59 AM MDT 8:49 PM MDT
Civil Twilight 4:19 AM MDT 9:28 PM MDT
Nautical Twilight 3:25 AM MDT 10:22 PM MDT
Astronomical Twilight 2:07 AM MDT 11:40 PM MDT
Moon 2:00 PM MDT (6/27) 12:18 AM MDT (6/27)
Length of Visible Light 17h 09m
Length of Day
15h 50m
First Quarter, 57% of the Moon is Illuminated
Jun 27
First Quarter
Jul 3
Full
Jul 10
Last Quarter
Jul 18
New
Jul 26
First Quarter

Hourly Weather History & Observations

Time (MDT) Temp. Dew Point Humidity Pressure Visibility Wind Dir Wind Speed Gust Speed Precip Events Conditions
12:56 AM 70.0 °F 48.9 °F 47% 29.57 in 10.0 mi NW 24.2 mph 32.2 mph N/A   Clear
1:56 AM 66.0 °F 48.0 °F 52% 29.62 in 10.0 mi NW 12.7 mph - N/A   Clear
3:56 AM 59.0 °F 48.0 °F 67% 29.69 in 10.0 mi NW 10.4 mph - N/A   Partly Cloudy
4:56 AM 57.9 °F 46.9 °F 67% 29.71 in 10.0 mi NW 13.8 mph - N/A   Clear
5:56 AM 55.9 °F 46.0 °F 69% 29.76 in 10.0 mi WNW 10.4 mph - N/A   Clear
6:56 AM 60.1 °F 46.0 °F 60% 29.78 in 10.0 mi WNW 10.4 mph - N/A   Clear
7:56 AM 66.0 °F 46.0 °F 48% 29.79 in 10.0 mi WNW 9.2 mph - N/A   Clear
8:56 AM 70.0 °F 37.0 °F 30% 29.79 in 10.0 mi NW 17.3 mph 25.3 mph N/A   Clear
9:56 AM 71.1 °F 34.0 °F 26% 29.81 in 10.0 mi NNW 15.0 mph - N/A   Clear
10:56 AM 73.9 °F 35.1 °F 24% 29.81 in 10.0 mi WNW 12.7 mph - N/A   Clear
11:56 AM 77.0 °F 36.0 °F 23% 29.82 in 10.0 mi WNW 15.0 mph 21.9 mph N/A   Clear
12:56 PM 79.0 °F 36.0 °F 21% 29.81 in 10.0 mi West 11.5 mph 21.9 mph N/A   Clear
1:56 PM 82.0 °F 35.1 °F 18% 29.81 in 10.0 mi West 15.0 mph 24.2 mph N/A   Clear
2:56 PM 82.9 °F 34.0 °F 17% 29.79 in 10.0 mi West 9.2 mph - N/A   Clear
3:56 PM 84.0 °F 33.1 °F 16% 29.79 in 10.0 mi West 11.5 mph 24.2 mph N/A   Clear
4:56 PM 84.0 °F 34.0 °F 17% 29.80 in 10.0 mi NW 17.3 mph 23.0 mph N/A   Clear
5:56 PM 82.0 °F 34.0 °F 18% 29.81 in 10.0 mi WNW 12.7 mph - N/A   Clear
6:56 PM 79.0 °F 35.1 °F 20% 29.82 in 10.0 mi NNW 10.4 mph - N/A   Clear
7:56 PM 73.9 °F 39.9 °F 29% 29.83 in 10.0 mi North 5.8 mph - N/A   Clear
8:56 PM 66.0 °F 39.9 °F 38% 29.87 in 10.0 mi North 6.9 mph - N/A   Clear
9:56 PM 62.1 °F 42.1 °F 48% 29.91 in 10.0 mi NNE 5.8 mph - N/A   Clear
10:56 PM 57.9 °F 43.0 °F 58% 29.92 in 10.0 mi Calm Calm - N/A   Clear
11:56 PM 51.1 °F 43.0 °F 74% 29.95 in 10.0 mi SSW 5.8 mph - N/A   Clear